www.pogodaiklimat.ru

Погода и климат >> Архив погоды >> Россия >> Ставропольский край >> Благодарный


ПОГОДА в Благодарном

  • Прогноз погоды в Благодарном
  • Монитор погоды в Благодарном

АРХИВ ПОГОДЫ в Благодарном

Время (UTC), дата Ветер
(напр.,м/с)
 
Видим.   Явления Облачность Т
(С)
Тd
(С)
f
(%)
Тe
(С)
Тes
(С)
Комфортность P
(гПа)
Po
(гПа)
Тmin
(С)
Tmax
(С)
R
(мм)
R24
(мм)
S
(см)
09 12.08 СЗ 3 20 км ясно +28.9 +5.7 23 +28 +41 жарко 1015.5 997.2
12 12.08 СЗ 2 20 км 8/8 600 м
[Sc]
+31.0 +5.8 21 +29 +31 жарко 1014.5 996.3
15 12.08 СЗ 3 20 км 3/3 600 м
[Sc]
+29.3 +7.0 25 +28 +29 жарко 1014.8 996.5 +31.1
18 12.08 С 1 20 км ясно +20.8 +8.9 46 +23 +23 комфорт 1016.8 998.0
21 12.08 С 1 20 км ясно +16.1 +8.3 60 +17 +17 1018.1 998.9
00 13.08 С 1 20 км ясно +13.2 +8.0 71 +13 +13 1018.9 999.5
03 13.08 З 1 20 км ясно +13.4 +7.5 67 +14 +14 1019.4 1000.1 +11.2
06 13.08 В 1 20 км ясно +24.7 +4.0 26 +24 +35 комфорт 1019.0 1000.3
09 13.08 С 3 20 км ясно +27.6 +2.9 20 +26 +39 жарко 1018.0 999.5
12 13.08 С 3 20 км ясно +30.2 -3.2 11 +27 +35 жарко 1016.4 998.1
15 13.08 СВ 2 20 км ясно +28.5 +0.8 17 +26 +27 жарко 1016.0 997.6 +30.2
18 13.08 С 2 20 км ясно +20.7 +3.7 33 +22 +22 комфорт 1017.7 998.9
21 13.08 СВ 1 20 км ясно +13.7 +5.8 59 +14 +14 1017.6 998.2
00 14.08 штиль 0 20 км ясно +11.1 +5.8 70 +11 +11 1017.9 998.4
03 14.08 З 1 20 км ясно +11.7 +6.3 69 +12 +12 1018.3 998.8 +9.5
06 14.08 В 2 20 км ясно +25.1 +4.6 27 +25 +34 комфорт 1017.0 998.4
09 14.08 В 3 20 км ясно +29.0 +4.1 20 +27 +41 жарко 1015.3 997.0
12 14.08 В 4 20 км ясно +31.4 +0.7 14 +28 +35 жарко 1013.6 995.4
15 14.08 В 3 20 км ясно +29.8 -0.3 14 +27 +28 жарко 1013.0 994.7 +31.5
18 14.08 В 2 20 км ясно +21.7 +1.7 27 +21 +21 комфорт 1014.0 995.2
21 14.08 В 2 20 км ясно +19.0 +1.0 30 +20 +20 1013.8 994.8
00 15.08 В 2 20 км ясно +15.5 +4.5 48 +16 +16 1013.8 994.7
03 15.08 В 1 20 км ясно +14.1 +6.7 61 +15 +15 1013.6 994.4 +13.5
06 15.08 В 4 20 км ясно +24.5 +8.1 35 +25 +31 комфорт 1012.7 994.2
09 15.08 В 5-11
{13}
20 км ясно +30.2 +1.1 15 +27 +36 жарко 1011.6 993.4
12 15.08 В 5-11
{13}
20 км ясно +33.1 -0.3 12 +30 +35 жарко 1009.7 991.7
15 15.08 В 4-10
{13}
20 км ясно +30.5 +3.1 17 +28 +29 жарко 1009.2 991.1 +33.3
18 15.08 В 4
{10}
20 км ясно +24.3 +6.1 31 +24 +24 комфорт 1010.5 991.9
21 15.08 В 2 20 км ясно +19.8 +8.0 46 +21 +21 комфорт 1011.0 992.2
00 16.08 В 3 20 км 10/10 600 м
[Sc]
+19.0 +14.5 75 +20 +20 1010.4 991.6
03 16.08 В 2 20 км 10/10 600 м
[Sc]
+20.0 +15.6 76 +23 +23 комфорт 1010.3 991.6 +18.3
06 16.08 В 3 20 км 9/9 600 м
[Sc]
+22.5 +16.3 68 +27 +28 душно 1009.8 991.2
09 16.08 В 4 20 км 4/4 600 м
[Cu hum]
+27.8 +17.1 52 +32 +38 душно 1008.3 990.1
12 16.08 В 4
{12}
20 км ясно +31.4 +16.1 40 +34 +41 душно 1005.9 987.9
15 16.08 В 2
{10}
20 км ясно +31.7 +14.1 34 +33 +34 жарко 1005.5 987.5 +32.8
18 16.08 В 2 20 км 9/9 600 м
[Sc]
+26.6 +12.3 41 +28 +28 жарко 1007.3 989.0
21 16.08 В 2
{10}
20 км 10/10 600 м
[Sc]
+23.3 +13.6 54 +27 +27 душно 1007.5 989.0
00 17.08 СВ 3 20 км 10/10 600 м
[Sc]
+21.2 +14.6 66 +24 +24 комфорт 1006.8 988.2
03 17.08 штиль 0
{10}
20 км 4/0
[Ac trans]
+20.0 +15.5 75 +22 +23 комфорт 1007.7 989.0 +20.0
06 17.08 ЮВ 2 20 км 4/0
[Ac trans]
+24.7 +16.6 61 +28 +35 душно 1008.2 989.8 +19.8
09 17.08 Ю 1 20 км 10/10 600 м
[Sc]
+28.1 +16.6 50 +32 +32 душно 1008.0 989.8
12 17.08 ЮВ 1 20 км 10/10 600 м
[Sc]
+29.8 +17.4 47 +34 +34 очень
душно
1008.3 990.2
15 17.08 Ю 1 20 км 10/10 600 м
[Cb cap]
+27.2 +19.4 62 +33 +33 очень
душно
1008.9 990.7 +30.3
18 17.08 В 1 20 км 3/3 600 м
[Sc]
+23.6 +19.3 77 +29 +29 душно 1010.1 991.6
21 17.08 СЗ 1 20 км 3/0
[Ac trans]
+20.7 +18.6 88 +26 +26 душно 1009.3 990.6
00 18.08 штиль 0 20 км ясно +18.5 +17.5 94 +19 +19 1009.1 990.3
03 18.08 штиль 0 4000 м дымка ясно +16.9 +15.9 94 +17 +17 1009.0 990.1 +16.9
06 18.08 ЮВ 2 20 км ясно +26.0 +16.8 57 +30 +38 душно 1008.5 990.2
09 18.08 С 3 20 км ясно +31.6 +13.4 33 +33 +46 жарко 1007.3 989.3
12 18.08 СВ 3 20 км 3/3 600 м
[Cu hum]
+35.2 +11.4 24 +35 +40 очень
жарко
1006.0 988.2
15 18.08 С 1 20 км ясно +34.6 +6.9 18 +33 +33 жарко 1006.1 988.3 +35.6
18 18.08 СВ 3 20 км ясно +28.9 +9.8 30 +29 +29 жарко 1008.5 990.3
21 18.08 С 1 20 км 10/10 600 м
[Sc]
+24.8 +11.1 42 +26 +26 жарко 1010.3 991.9
00 19.08 З 1 20 км ясно +21.8 +13.3 58 +24 +24 комфорт 1010.9 992.3
03 19.08 З 2 20 км ясно +20.9 +15.7 72 +25 +25 комфорт 1012.4 993.7 +20.5
06 19.08 З 2 20 км 4/4 600 м
[Sc]
+28.4 +15.1 44 +31 +36 душно 1012.7 994.5

 

Местоположение метеостанции Благодарный (Ставропольский край, Россия): широта 45.10 долгота 43.45 высота над уровнем моря 163 м.

В архиве по умолчанию представлена погода в Благодарном за последнюю неделю. Архивные данные за месяц целиком и за предыдущие месяцы, начиная с января 2011 года, Вы можете получить, выбрав интересующий диапазон дат из раскрывающегося списка и нажав кнопку "Ввод!".


*Определитесь, кто Вы:
робот инопланетянин человек

Внимание! Время в таблицах - всемирное. Для получения местного времени необходимо прибавить поправку, которая равна 3 ч.

Смотрите также архив погоды в соседних городах и на ближайших метеорологических станциях:

Погода в Светлограде (Ставропольский край, Россия) (55 км)
Погода в Александровском (Ставропольский край, Россия) (55 км)
Погода в Буденновске (Ставропольский край, Россия) (64 км)
Погода в Арзгире (Ставропольский край, Россия) (68 км)
Погода в Зеленокумске (Ставропольский край, Россия) (82 км)
Погода в Дивном (Ставропольский край, Россия) (92 км)
Погода в Минеральных Водах (Ставропольский край, Россия) (102 км)
Погода в Ставрополе (Ставропольский край, Россия) (108 км)
Погода в Георгиевске (Ставропольский край, Россия) (108 км)
Погода в Ики-Буруле (Калмыкия, Россия) (121 км)

Пояснения к столбцам:

Ветер - указаны скорость ветра в м/с - средняя за 10 мин, порывы в срок и между сроками (в фигурных скобках) и направление, откуда дует ветер: С - северный, СВ - северо-восточный, В - восточный, ЮВ - юго-восточный, Ю - южный, ЮЗ - юго-западный, З - западный, СЗ - северо-западный.
Видимость - горизонтальная дальность видимости в метрах или километрах. При видимости от 1 до 10 км при отсутствии осадков обычно наблюдается дымка, при ухудшении видимости до 1 км и менее - туман. В сухую погоду видимость может ухудшаться дымом, пылью или мглою.
Явления - указаны атмосферные явления, наблюдавшиеся в срок или в последний час перед сроком; фигурными скобками обозначены явления, наблюдавшиеся между сроками (за 1-3 часа до срока); квадратными скобками обозначены град или гололедные отложения с указанием их диаметра в мм.
Облачность - указаны через наклонную черту общая и нижняя облачность в баллах и высота нижней границы облаков в метрах; квадратными скобками обозначены формы облаков: Ci - перистые, Cs - перисто-слоистые, Cc - перисто-кучевые, Ac - высококучевые, As - высокослоистые, Sc - слоисто-кучевые, Ns - слоисто-дождевые, Cu - кучевые, Cb - кучево-дождевые. Подробнее классификацию облаков см. в Атласе облаков (PDF).
T - Температура воздуха - температура, измеренная на высоте 2 м над землей.
Td - Температура точки росы - температура, при понижении до которой содержащийся в воздухе водяной пар достигнет насыщения.
f - Относительная влажность воздуха - влажноcть воздуха, измеренная на высоте 2 м над землей.
Te - Эффективная температура - температура, которую ощущает одетый по сезону человек в тени. Характеристика душности погоды. При расчете учитывается влияние влажности воздуха и скорости ветра на теплоощущения человека.
Tes - Эффективная температура на солнце - температура, которую ощущает человек, с поправкой на солнечный нагрев. Характеристика знойности погоды. Зависит от высоты солнца над горизонтом, облачности и скорости ветра. Ночью, в пасмурную погоду, а также при ветре 12 м/с и более поправка равна нулю.
P - Атмосферное давление - приведенное к уровню моря атмосферное давление.
Po - Атмосферное давление - измеренное на уровне метеостанции атмосферное давление.
Tmin - Минимальная температура - минимум температуры воздуха на высоте 2 м над землей.
Tmax - Максимальная температура - максимум температуры воздуха на высоте 2 м над землей.
R - Количество осадков - Количество выпавших осадков за период времени, мм. При наведении курсора мыши на число - период времени, за который выпало указанное количество осадков.
R24 - Количество осадков - Количество выпавших осадков за 24 часа, мм.
S - Снежный покров - Высота снежного покрова, см. При наведении курсора мыши на число - состояние снежного покрова и степень покрытия местности в баллах.